Starlink 4061

operational
NORAD ID: 53247 Int'l Des: 2022-086 Owner: SPXS Country: US Constellation: starlink
LEOCIRCULAR

About Starlink 4061

Description loading...

Live Position

Loading 3D Globe...

Upcoming Passes

Altitude History

Altitude vs Time

uPlot chart will show altitude changes over time

Two-Line Element Set

1 53247U 22086F 25302.76175832 .00001762 00000-0 12875-3 0 9992
2 53247 53.2179 67.0605 0001292 84.5865 275.5275 15.08849375181546
Epoch: Oct 29, 2025 • Age: 23 hours

Current Status

Altitude 543.1 km
Velocity 7.59 km/s
Sub-Earth Point -11.81°S, 48.57°W
Launch Date Jul 24, 2022
Age 3.2 years
Type internet

Technical Details

Classification Payload
Mass 297.00 kg
Dry Mass 275.00 kg
Total Mass 297.00 kg
Length 0.20 m
Diameter 2.80 m
Span 9.00 m
Shape Box + pan
Manufacturer SPXS
Bus Type Starlink
Phase Status In Orbit
Owner/State SPXS/US

Large Constellations

Loading constellations...